Location: Unspecified
(52.4292°N, 19.3359°E)
Time: 23:07:54
(UTC+02:00)

A-11 Canister half - Pass Details

Date: 22 May 2024
Orbit: 1524 x 1683 km, 47.3° (Epoch: 19 June)

Event Time Altitude Azimuth Distance (km) Brightness Sun altitude
Rises 03:16:05 0° 282° (WNW) 4,774 11.3 -9.5°
Reaches altitude 10° 03:19:17 10° 277° (W) 3,810 10.8 -9.3°
Maximum altitude 03:28:21 47° 208° (SSW) 2,074 9.3 -8.4°
Drops below altitude 10° 03:37:42 10° 139° (SE) 3,912 11.1 -7.5°
Sets 03:41:01 0° 134° (SE) 4,911 11.6 -7.1°
